Location: Lac de la Montagne noire
(46.1952°N, 74.2701°W)
Time: 13:42:23
(UTC-04:00)

ISS - Pass Details

Date: 30 March 2019
Orbit: 408 x 410 km, 51.6° (Epoch: 26 April)

Event Time Altitude Azimuth Distance (km) Brightness Sun altitude
Rises 22:01:57 0° 297° (WNW) 2,338 1.3 -26.0°
Reaches altitude 10° 22:04:04 10° 302° (WNW) 1,475 0.0 -26.3°
Enters shadow 22:05:36 24° 311° (NW) 885 -1.4 -26.5°
